[[{"header":{"parameterUnit":"m.s-1","parameterCategory":1,"la1":30.2991,"la2":30.254,"lo1":-89.0895,"lo2":-89.0444,"dy":0.0017,"dx":0.0017,"nx":28,"ny":28,"refTime":"2024-07-12T03:00:00:Z","depth":0,"parameterNumber":2,"parameterNumberName":"U-component_of_WINDS"},"data":[0,0,0,0,0,0,0,0,0,0,0,0,0,0,0,0,0,0,0,0,0,0,0,0,0,0,0,0,0,0,0,0,0,0,0,0,0,0,0,0,0,0,0,0,0,0,0,0,0,0,0,0,0,0,0,0,0,0,2.0143,2.0144,0,2.0266,2.0268,2.0269,2.027,2.0268,2.0266,2.0265,2.0392,2.0397,2.0402,0,0,0,0,0,0,0,0,0,0,0,0,0,1.9907,1.9911,2.0143,2.0144,2.0146,2.0266,2.0268,2.0269,2.027,2.0268,2.0266,2.0264,2.0391,2.0397,2.0402,0,0,0,0,0,0,0,0,0,0,0,0,0,2.0018,1.9913,2.0142,2.016,2.0163,2.0266,2.0268,2.027,2.027,2.0268,2.0266,2.0263,2.0389,2.0396,2.0403,2.0496,0,0,2.0426,2.0429,0,0,0,0,0,0,0,0,2.0011,2.0026,2.0156,2.0159,2.0163,2.025,2.0231,2.0346,2.0271,2.023,2.0265,2.0262,2.0347,2.0358,2.0386,2.0502,2.0507,2.0426,2.0431,2.0434,2.0436,0,0,0,0,0,0,0,2.0004,2.0021,2.0191,2.0158,2.0162,2.0162,2.0175,2.0253,2.03,2.0233,2.0233,2.0248,2.0348,2.0379,2.0389,2.0509,2.0426,2.0433,2.0437,2.044,2.0705,2.0708,0,0,0,0,0,0,1.9992,2.0015,2.0188,2.0195,2.008,2.0168,2.0183,2.0224,2.0299,2.0309,2.025,2.0248,2.0368,2.0381,2.0394,2.0505,2.0434,2.0441,2.0445,2.0703,2.0706,2.0709,0,0,0,0,0,0,1.9987,2.0008,2.0183,2.0105,2.0127,2.0175,2.0221,2.0228,2.0259,2.0312,2.0321,2.0273,2.0366,2.0383,2.047,2.051,2.0444,2.0451,2.0699,2.0704,2.0707,2.073,0,0,0,0,0,0,1.998,2.0006,2.0042,2.0106,2.0131,2.0257,2.0224,2.0232,2.0271,2.0269,2.0336,2.0344,2.0366,2.0459,2.0477,2.0519,2.0456,2.0696,2.0701,2.0706,2.0726,2.0735,2.0742,0,0,0,0,0,1.9972,2.0044,2.0044,2.0064,2.0177,2.0259,2.0274,2.0297,2.0274,2.0311,2.0345,2.0342,2.0503,2.0468,2.0488,2.0533,2.0694,2.07,2.0706,2.0723,2.0733,2.0742,0,0,0,0,0,0,1.9984,2.0053,2.0053,2.0148,2.0198,2.0259,2.0306,2.0307,2.0365,2.0361,2.0387,2.0402,2.0488,2.0519,2.0479,2.0625,2.0595,2.0606,2.0601,2.0612,2.0619,2.0609,2.0462,0,0,0,0,0,1.9998,2.0059,2.0116,2.0194,2.0219,2.0258,2.0294,2.0308,2.036,2.0382,2.0422,2.0473,2.0535,2.0575,2.0635,2.0731,2.0745,2.0772,2.0779,2.0785,2.0794,2.0845,2.0857,2.0728,2.0728,2.0728,0,0,2.0027,2.0072,2.0109,2.0197,2.0237,2.0299,2.0276,2.0343,2.0388,2.0392,2.0475,2.0507,2.0566,2.0657,2.0699,2.0686,2.0832,2.0793,2.0798,2.0803,2.0852,2.0864,2.0875,2.0732,2.0732,2.0731,0,0,2.011,2.0151,2.022,2.026,2.0321,2.0346,2.0363,2.0424,2.0445,2.0529,2.0532,2.0587,2.0694,2.0735,2.077,2.0868,2.0867,2.0887,2.0927,2.0977,2.0987,2.0996,2.1029,2.1041,2.0895,2.0895,2.0895,0,2.0139,2.0232,2.0255,2.0322,2.036,2.0365,2.0434,2.0472,2.055,2.0576,2.056,2.0692,2.0732,2.0832,2.0855,2.0884,2.0903,2.0879,2.0983,2.0993,2.1001,2.1033,2.1046,2.0897,2.0897,2.0897,2.0897,0,2.0263,2.0327,2.0375,2.0449,2.0493,2.056,2.0593,2.0635,2.0644,2.0671,2.0756,2.0804,2.0873,2.0898,2.0909,2.0999,2.0988,2.0978,2.0948,2.1015,2.1045,2.1058,2.09,2.0899,2.0899,2.0898,0,0,2.0357,2.0442,2.0459,2.0491,2.0558,2.0608,2.0676,2.0743,2.0777,2.083,2.0886,2.0976,2.0965,2.1005,2.102,2.1064,2.1136,2.1047,2.1049,2.106,2.1236,2.1242,2.1256,2.1136,2.1138,2.114,2.123,0,2.0447,2.0566,2.0588,2.0692,2.0751,2.0756,2.0815,2.0862,2.0889,2.0943,2.0972,2.1034,2.1017,2.1041,2.1084,2.1118,2.1171,2.1112,2.1188,2.119,2.1171,2.1272,2.128,2.1363,2.1243,2.1245,2.1246,0,2.0567,2.0622,2.0731,2.0788,2.0814,2.0866,2.0928,2.098,2.1033,2.1049,2.1093,2.1102,2.1172,2.114,2.1235,2.1194,2.1227,2.1248,2.1251,2.1258,2.1221,2.128,2.139,2.1401,2.1266,2.1264,2.1263,0,2.0623,2.0724,2.0802,2.083,2.0899,2.0935,2.0966,2.1016,2.1055,2.1109,2.1134,2.1196,2.123,2.1277,2.1303,2.1278,2.1396,2.1367,2.1411,2.141,2.1434,2.1432,2.1549,2.1458,2.1458,2.1458,2.1458,0,2.0719,2.0785,2.0827,2.0875,2.0949,2.0974,2.1046,2.1076,2.1121,2.1174,2.1184,2.1233,2.1266,2.132,2.1341,2.1415,2.1431,2.1446,2.145,2.1444,2.1442,2.1465,2.1459,2.1461,2.146,2.146,2.1459,0,2.0793,2.0824,2.0909,2.0967,2.0983,2.1035,2.1085,2.1131,2.1157,2.1225,2.1242,2.1284,2.1348,2.1379,2.1459,2.1473,2.1557,2.1559,2.1539,2.154,2.1581,2.1576,2.1715,2.1734,2.1633,2.1633,2.1634,0,2.0852,2.0903,2.0966,2.1002,2.1033,2.1091,2.113,2.1156,2.1196,2.1259,2.1297,2.1362,2.1414,2.1517,2.1554,2.1615,2.1617,2.1662,2.1626,2.1618,2.1616,2.1612,2.1616,2.1668,2.1669,2.1669,2.167,0,2.0952,2.0964,2.1019,2.108,2.1125,2.1174,2.1222,2.1251,2.1285,2.1329,2.1394,2.1435,2.1516,2.1579,2.1643,2.1674,2.1677,2.1681,2.1694,2.1687,2.1673,2.1679,2.1554,2.1677,2.1677,2.1676,2.1676,2.1675,2.1019,2.1064,2.1114,2.1175,2.1214,2.1258,2.1303,2.1335,2.139,2.1457,2.147,2.1539,2.1589,2.1674,2.1708,2.1762,2.1752,2.1771,2.1776,2.178,2.1781,2.1665,2.1774,2.1773,2.1773,2.1773,2.1773,0,2.1118,2.1151,2.1206,2.1272,2.1319,2.1318,2.1371,2.1411,2.1471,2.1518,2.1569,2.1643,2.1704,2.1746,2.1808,2.1843,2.1846,2.1859,2.1856,2.1862,2.1787,2.1769,2.1855,2.1855,2.1855,2.1855,2.1855,2.1855,2.1175,2.1249,2.1268,2.1361,2.1394,2.1461,2.149,2.1531,2.1568,2.165,2.1701,2.1728,2.1772,2.1837,2.1893,2.1904,2.1925,2.1938,2.1948,2.1877,2.1868,2.186,2.1842,2.1943,2.1943,2.2018,2.2019,2.2019]},{"header":{"parameterUnit":"m.s-1","parameterCategory":1,"la1":30.2991,"la2":30.254,"lo1":-89.0895,"lo2":-89.0444,"dy":0.0017,"dx":0.0017,"nx":28,"ny":28,"refTime":"2024-07-12T03:00:00:Z","depth":0,"parameterNumber":3,"parameterNumberName":"V-component_of_WINDS"},"data":[0,0,0,0,0,0,0,0,0,0,0,0,0,0,0,0,0,0,0,0,0,0,0,0,0,0,0,0,0,0,0,0,0,0,0,0,0,0,0,0,0,0,0,0,0,0,0,0,0,0,0,0,0,0,0,0,0,0,4.2017,4.2017,0,4.1997,4.1997,4.1997,4.1908,4.1906,4.1904,4.1902,4.1883,4.1884,4.1886,0,0,0,0,0,0,0,0,0,0,0,0,0,4.1979,4.198,4.2017,4.2017,4.2016,4.1997,4.1997,4.1996,4.1908,4.1906,4.1903,4.1901,4.1882,4.1884,4.1886,0,0,0,0,0,0,0,0,0,0,0,0,0,4.1981,4.198,4.2017,4.197,4.1966,4.1997,4.1997,4.1996,4.1909,4.1906,4.1902,4.19,4.1882,4.1884,4.1886,4.1962,0,0,4.1893,4.1893,0,0,0,0,0,0,0,0,4.1981,4.1982,4.1977,4.1973,4.1968,4.1952,4.1976,4.1985,4.191,4.193,4.1902,4.1898,4.1908,4.1908,4.1911,4.1961,4.196,4.1893,4.1894,4.1895,4.1896,0,0,0,0,0,0,0,4.1981,4.1983,4.2009,4.1977,4.1972,4.195,4.1947,4.1977,4.1937,4.1928,4.1922,4.1921,4.1905,4.1909,4.191,4.196,4.1893,4.1895,4.1896,4.1897,4.2068,4.2071,0,0,0,0,0,0,4.1987,4.1983,4.201,4.2008,4.1967,4.1953,4.195,4.196,4.1937,4.193,4.1923,4.1917,4.1907,4.1908,4.1909,4.1994,4.1895,4.1897,4.1898,4.2065,4.2069,4.2072,0,0,0,0,0,0,4.1987,4.199,4.201,4.1994,4.1995,4.1957,4.197,4.1961,4.1965,4.1933,4.1925,4.1935,4.1905,4.1906,4.1949,4.1992,4.1898,4.19,4.2061,4.2066,4.2071,4.2166,0,0,0,0,0,0,4.1986,4.1991,4.2019,4.1995,4.1996,4.205,4.1972,4.1963,4.1969,4.196,4.1941,4.1935,4.1902,4.1946,4.1951,4.1994,4.1902,4.2057,4.2063,4.2069,4.2159,4.2174,4.2187,0,0,0,0,0,4.1985,4.2048,4.2021,4.2025,4.2031,4.2053,4.2053,4.2014,4.1973,4.2001,4.198,4.1936,4.1987,4.1951,4.1956,4.2,4.2054,4.2062,4.2069,4.2153,4.2171,4.2186,0,0,0,0,0,0,4.2078,4.2044,4.2014,4.207,4.2065,4.2038,4.2072,4.2035,4.2041,4.2033,4.1984,4.198,4.203,4.2019,4.198,4.2071,4.2013,4.2022,4.2076,4.2093,4.2106,4.2107,4.1903,0,0,0,0,0,4.2105,4.2126,4.2095,4.2148,4.2147,4.211,4.2119,4.2088,4.2081,4.2079,4.2061,4.2056,4.207,4.2081,4.2093,4.2158,4.2152,4.2191,4.2204,4.2216,4.2223,4.2255,4.2271,4.2097,4.2096,4.2096,0,0,4.2162,4.2145,4.2161,4.2166,4.2159,4.2181,4.2109,4.2136,4.2152,4.2083,4.2121,4.2108,4.2099,4.2153,4.2176,4.2146,4.227,4.2225,4.2235,4.2236,4.2264,4.2281,4.2296,4.2102,4.2101,4.21,0,0,4.2275,4.2266,4.2307,4.2301,4.229,4.2265,4.2276,4.2254,4.2242,4.228,4.2228,4.2247,4.2274,4.2269,4.227,4.2381,4.2341,4.2387,4.2458,4.2489,4.2503,4.2515,4.2553,4.2567,4.2395,4.2395,4.2395,0,4.2346,4.2377,4.2334,4.2364,4.2367,4.2305,4.2347,4.2343,4.2337,4.2341,4.2308,4.2339,4.2329,4.2379,4.2406,4.241,4.242,4.2388,4.2505,4.2516,4.2527,4.2562,4.2577,4.24,4.24,4.2399,4.2399,0,4.2464,4.2487,4.2522,4.2516,4.2524,4.256,4.2522,4.2535,4.2504,4.2483,4.2522,4.2508,4.2515,4.2525,4.2496,4.2571,4.2553,4.2513,4.2454,4.255,4.2582,4.2595,4.2408,4.2406,4.2405,4.2403,0,0,4.2635,4.2604,4.2618,4.2614,4.2597,4.2614,4.2647,4.2653,4.2664,4.2663,4.2688,4.2712,4.2675,4.2676,4.2647,4.2675,4.2761,4.2631,4.263,4.2654,4.2841,4.287,4.2886,4.2735,4.2737,4.2739,4.2841,0,4.2741,4.2794,4.2756,4.2816,4.2836,4.2777,4.2806,4.2799,4.278,4.2794,4.2773,4.279,4.2741,4.2741,4.2766,4.2745,4.2798,4.2738,4.2758,4.2759,4.2759,4.2903,4.2934,4.3031,4.2854,4.2856,4.2858,0,4.2872,4.2874,4.2936,4.2914,4.2921,4.2947,4.2949,4.2963,4.2954,4.2938,4.294,4.2902,4.2933,4.2876,4.2917,4.2877,4.2883,4.2875,4.2877,4.2876,4.2813,4.2904,4.3061,4.3075,4.2878,4.2876,4.2875,0,4.2987,4.3007,4.3045,4.3044,4.302,4.3039,4.303,4.3018,4.3024,4.3026,4.3029,4.3036,4.3039,4.3045,4.301,4.2972,4.3055,4.2996,4.3042,4.3043,4.306,4.3059,4.3218,4.3068,4.3068,4.3068,4.3068,0,4.3109,4.3148,4.3096,4.312,4.3162,4.3118,4.3162,4.3147,4.3136,4.3156,4.3107,4.3127,4.308,4.3096,4.3069,4.3106,4.3109,4.3096,4.3088,4.3099,4.3101,4.3101,4.3093,4.3072,4.3071,4.307,4.3069,0,4.3244,4.3211,4.3249,4.3223,4.3217,4.3249,4.3226,4.3247,4.3225,4.3251,4.3254,4.322,4.3235,4.3201,4.3212,4.3194,4.3246,4.3229,4.3249,4.3243,4.3291,4.3286,4.3454,4.3473,4.3313,4.3314,4.3316,0,4.3322,4.3351,4.3327,4.3336,4.333,4.3346,4.3351,4.3309,4.3317,4.3308,4.333,4.334,4.3346,4.3373,4.335,4.3357,4.3338,4.3397,4.3339,4.3349,4.3337,4.3335,4.3336,4.3408,4.341,4.3411,4.3413,0,4.3464,4.3446,4.3455,4.3459,4.3466,4.3467,4.3464,4.3475,4.343,4.3442,4.3455,4.346,4.3471,4.3482,4.3484,4.3475,4.3436,4.3431,4.3442,4.3453,4.3462,4.3456,4.3279,4.3427,4.3426,4.3425,4.3424,4.3423,4.3572,4.3594,4.358,4.3591,4.3585,4.3584,4.3601,4.3581,4.3592,4.3596,4.3571,4.3591,4.358,4.3579,4.3574,4.3589,4.3562,4.3578,4.3582,4.3586,4.3593,4.3462,4.3589,4.3589,4.3588,4.3588,4.3588,0,4.3709,4.3697,4.3708,4.3705,4.3715,4.3677,4.3673,4.3683,4.37,4.3693,4.37,4.3716,4.3726,4.3703,4.371,4.3726,4.3709,4.3729,4.3727,4.3725,4.3617,4.3606,4.3743,4.3743,4.3743,4.3743,4.3743,4.3743,4.3782,4.3816,4.3797,4.3828,4.3816,4.3833,4.3833,4.3832,4.3826,4.3845,4.3853,4.3838,4.3825,4.383,4.3838,4.3831,4.3835,4.3861,4.3848,4.3748,4.3733,4.3718,4.3707,4.3863,4.3863,4.3954,4.3955,4.3956]}]]